Flag for U.S.A. Weather past 2 weeks in Kalispell, Montana, U.S.A.

Now
62 °F

Sunny.


Feels Like: 62 °F
Forecast: 48 / 72 °F
Wind: No wind

Location: Kalispell - Glacier Park International

Current Time: May 27, 2015 at 8:23:08 PM

Latest Report: May 27, 2015 at 7:55 PM


Visibility: 10 mi

Pressure: 29.95 "Hg

Humidity: 65%

Dew point: 50 °F

Location of KalispellLocation

Historic Weather in Kalispell — Graph

°F

Kalispell temperature yesterday

Maximum temperature yesterday: 71 °F (at 4:55 PM)
Minimum temperature yesterday: 42 °F (at 6:03 AM)
Average temperature yesterday: 58 °F

Past Weeks' High & Low Weather Summary

 TemperatureHumidityPressure
High81 °F (May 22, 4:55 PM)97% (May 26, 5:55 AM)30.29 "Hg (May 26, 5:55 AM)
Low36 °F (May 18, 3:55 AM)16% (May 21, 4:55 PM)29.64 "Hg (May 15, 4:55 PM)
Average56 °F52%29.96 "Hg
* Reported May 12 6:55 PM — May 27 6:55 PM, Kalispell, Weather by CustomWeather, © 2015

Note: Actual official high and low records may vary slightly from our data, if they occured in-between our weather recording intervals... More about our weather records

Advertising

Kalispell weather history for previous 24 hours

 ConditionsComfort  
Time TempWeatherWind HumidityBarometerVisibility
6:55 PM
Wed, May 27
66 °FLight rain. Mostly cloudy.No wind47%29.96 "Hg10 mi
5:55 PM66 °FSunny.6 mph47%29.96 "Hg10 mi
4:55 PM67 °FSunny.8 mph45%29.96 "Hg10 mi
3:55 PM63 °FSunny.7 mph58%29.98 "Hg10 mi
2:55 PM63 °FSunny.9 mph58%30.00 "Hg10 mi
1:55 PM64 °FPassing clouds.10 mph54%30.01 "Hg10 mi
12:55 PM62 °FSunny.No wind56%30.02 "Hg10 mi
11:55 AM60 °FPartly sunny.5 mph62%30.02 "Hg10 mi
10:55 AM58 °FOvercast.3 mph67%30.03 "Hg10 mi
9:55 AM55 °FOvercast.No wind77%30.02 "Hg10 mi
8:55 AM53 °FOvercast.No wind80%30.02 "Hg10 mi
7:55 AM50 °FPartly sunny.No wind86%30.00 "Hg10 mi
6:55 AM46 °FScattered clouds.No wind93%30.00 "Hg10 mi
5:55 AM44 °FPassing clouds.N/A93%30.00 "Hg10 mi
4:55 AM46 °FOvercast.3 mph89%29.98 "Hg10 mi
3:55 AM44 °FClear.5 mph93%29.98 "Hg10 mi
2:55 AM44 °FPassing clouds.3 mph93%29.97 "Hg10 mi
1:55 AM47 °FPassing clouds.3 mph90%29.96 "Hg10 mi
12:55 AM46 °FClear.3 mph86%29.95 "Hg10 mi
11:55 PM
Tue, May 26
49 °FClear.5 mph84%29.94 "Hg10 mi
10:55 PM49 °FClear.3 mph80%29.96 "Hg10 mi
9:55 PM58 °FSunny.No wind62%29.93 "Hg10 mi
8:55 PM61 °FSunny.6 mph56%29.91 "Hg10 mi
Weather by CustomWeather, © 2015

See weather overviewHow to use our weather pages